Tracking 17265 objects as of 2-September-2015
HD Live streaming from Space Station

Track Soyuz TMA-18M
and Space Station

IRIDIUM 76

Track IRIDIUM 76 now!
10-day predictions
IRIDIUM 76 is classified as:


NORAD ID: 25432
Int'l Code: 1998-048B
Perigee: 783.1 km
Apogee: 786.5 km
Inclination: 86.4 °
Period: 100.4 minutes
Semi major axis: 7155 km
RCS: 4.1166 m2 (large)
Launch date: August 19, 1998
Source: United States (US)

Spare; stored in 667 km storage orbit, not raised to 780 km operational orbit until needed
Your satellite tracking list
Your tracking list is empty





NASA's NSSDC Master Catalog

Two Line Element Set (TLE):
1 25432U 98048B   15245.35680699  .00000260  00000-0  85660-4 0  9995
2 25432  86.4019 168.7889 0002416  79.9208  38.5940 14.34215691891880

Source of the keplerian elements: AFSPC

N2YO: 256